This demonstration page uses our WeatherBlox Daily Observations layout. Learn more.

Left ArrowRight Arrow

Hourly Observations for April 12, 2021

Temp ( °F °C ) Dew Point ( °F °C ) Humidity (%) Winds ( mph kmh ) Pressure ( in mb ) Visibility ( mi km ) Precip ( " mm )
12:15 am 00:15 Cloudy 61 16 52 11 72 72 NNE 5 7 29.6 1002 10 16.0934 0 0
12:35 am 00:35 Cloudy 61 16 52 11 72 72 NNE 5 7 29.6 1002 10 16.0934 0 0
12:55 am 00:55 Cloudy 61 16 52 11 72 72 NNE 6 9 29.6 1002 10 16.0934 0 0
1:15 am 01:15 Cloudy 61 16 52 11 72 72 NNE 5 7 29.61 1003 10 16.0934 0 0
1:35 am 01:35 Cloudy 61 16 52 11 72 72 N 3 6 29.61 1003 10 16.0934 0 0
1:55 am 01:55 Cloudy 59 15 52 11 77 77 N 3 6 29.62 1003 10 16.0934 0 0
2:15 am 02:15 Cloudy 59 15 52 11 77 77 N 3 6 29.62 1003 10 16.0934 0 0
2:35 am 02:35 Cloudy 59 15 52 11 77 77 NNE 7 11 29.62 1003 10 16.0934 0 0
2:55 am 02:55 Cloudy 59 15 52 11 77 77 NNE 6 9 29.62 1003 10 16.0934 0 0
3:15 am 03:15 Cloudy 57 14 54 12 88 88 NNE 7 11 29.63 1003 10 16.0934 0 0
3:35 am 03:35 Mostly Cloudy 55 13 54 12 94 94 NNE 6 9 29.64 1004 10 16.0934 0 0
3:55 am 03:55 Partly Cloudy 55 13 52 11 88 88 NNE 5 7 29.64 1004 10 16.0934 0 0
4:15 am 04:15 Clear 54 12 52 11 94 94 NNE 3 6 29.64 1004 10 16.0934 0 0
4:35 am 04:35 Clear 52 11 52 11 100 100 N 5 7 29.64 1004 10 16.0934 0 0
4:55 am 04:55 Clear 52 11 52 11 100 100 NNE 5 7 29.64 1004 10 16.0934 0 0
5:15 am 05:15 Clear 52 11 50 10 94 94 N 3 6 29.64 1004 10 16.0934 0 0
5:35 am 05:35 Clear 50 10 50 10 100 100 NNE 3 6 29.66 1004 10 16.0934 0 0
5:55 am 05:55 Partly Cloudy 50 10 50 10 100 100 NNE 5 7 29.67 1005 10 16.0934 0 0
6:15 am 06:15 Mostly Cloudy 50 10 50 10 100 100 NNE 5 7 29.67 1005 10 16.0934 0 0
6:35 am 06:35 Cloudy 50 10 50 10 100 100 NNE 5 7 29.67 1005 10 16.0934 0 0
6:55 am 06:55 Cloudy 48 9 48 9 100 100 Calm 29.68 1005 10 16.0934 0 0
7:15 am 07:15 Cloudy 50 10 50 10 100 100 Calm 29.68 1005 10 16.0934 0 0
7:35 am 07:35 Mostly Cloudy 50 10 50 10 100 100 Calm 29.69 1005 10 16.0934 0 0
7:55 am 07:55 Mostly Cloudy 50 10 50 10 100 100 ENE 3 6 29.69 1005 10 16.0934 0 0
8:15 am 08:15 Cloudy 52 11 50 10 94 94 Calm 29.68 1005 10 16.0934 0 0
8:35 am 08:35 Cloudy 52 11 50 10 94 94 E 3 6 29.69 1006 10 16.0934 0 0
8:55 am 08:55 Cloudy 52 11 50 10 94 94 ENE 5 7 29.69 1006 10 16.0934 0 0
9:15 am 09:15 Cloudy 52 11 50 10 94 94 NE 3 6 29.7 1006 10 16.0934 0 0
9:35 am 09:35 Mostly Cloudy 52 11 50 10 94 94 Calm 29.7 1006 10 16.0934 0 0
9:55 am 09:55 Mostly Cloudy 54 12 50 10 88 88 NE 5 7 29.71 1006 10 16.0934 0 0
10:15 am 10:15 Cloudy 54 12 50 10 88 88 NE 3 6 29.71 1006 10 16.0934 0 0
10:35 am 10:35 Cloudy 55 13 50 10 82 82 NNE 3 6 29.71 1006 10 16.0934 0 0
10:55 am 10:55 Cloudy 55 13 50 10 82 82 NE 3 6 29.72 1006 10 16.0934 0 0
11:15 am 11:15 Cloudy 57 14 50 10 77 77 ENE 5 7 29.72 1006 10 16.0934 0 0
11:35 am 11:35 Cloudy 57 14 50 10 77 77 NE 3 6 29.72 1006 10 16.0934 0 0
11:55 am 11:55 Cloudy 55 13 52 11 88 88 NE 3 6 29.72 1006 10 16.0934 0 0
12:15 pm 12:15 Cloudy 57 14 52 11 82 82 NE 3 6 29.72 1006 10 16.0934 0 0
12:35 pm 12:35 Cloudy 59 15 52 11 77 77 NNE 3 6 29.73 1007 10 16.0934 0 0
12:55 pm 12:55 Cloudy with Light Rain 55 13 52 11 88 88 Calm 29.72 1006 7 11.26538 0 0
1:15 pm 13:15 Cloudy 57 14 50 10 77 77 Calm 29.72 1006 10 16.0934 0.01 0.254
1:35 pm 13:35 Cloudy 59 15 50 10 72 72 Calm 29.72 1006 10 16.0934 0.01 0.254
1:55 pm 13:55 Cloudy 59 15 50 10 72 72 Calm 29.72 1006 10 16.0934 0.01 0.254
2:15 pm 14:15 Cloudy 61 16 50 10 68 68 W 5 7 29.73 1007 10 16.0934 0 0
2:35 pm 14:35 Cloudy 59 15 52 11 77 77 SE 7 11 29.74 1007 10 16.0934 0 0
2:55 pm 14:55 Cloudy 57 14 50 10 77 77 SE 8 13 29.73 1007 10 16.0934 0 0
3:15 pm 15:15 Cloudy 57 14 50 10 77 77 SE 6 9 29.74 1007 10 16.0934 0 0
3:35 pm 15:35 Cloudy with Light Rain 57 14 50 10 77 77 ESE 6 9 29.74 1007 10 16.0934 0 0
3:55 pm 15:55 Cloudy 57 14 50 10 77 77 SE 8 13 29.74 1007 10 16.0934 0 0
4:15 pm 16:15 Cloudy 57 14 50 10 77 77 E 5 7 29.74 1007 10 16.0934 0 0
4:35 pm 16:35 Cloudy 57 14 52 11 82 82 E 3 6 29.75 1007 10 16.0934 0 0
4:55 pm 16:55 Cloudy 57 14 52 11 82 82 E 6 9 29.75 1007 10 16.0934 0 0
5:15 pm 17:15 Cloudy 57 14 52 11 82 82 ENE 6 9 29.76 1008 10 16.0934 0 0
5:35 pm 17:35 Cloudy 57 14 50 10 77 77 SE 5 7 29.77 1008 10 16.0934 0 0
5:55 pm 17:55 Cloudy 59 15 52 11 77 77 SE 3 6 29.79 1009 10 16.0934 0 0
6:15 pm 18:15 Cloudy 57 14 52 11 82 82 E 5 7 29.8 1009 10 16.0934 0 0
6:35 pm 18:35 Cloudy 57 14 50 10 77 77 E 5 7 29.8 1009 10 16.0934 0 0
6:55 pm 18:55 Cloudy 57 14 52 11 82 82 NNE 7 11 29.81 1009 10 16.0934 0 0
7:15 pm 19:15 Cloudy with Light Rain 54 12 52 11 94 94 N 9 15 29.83 1010 10 16.0934 0 0
7:35 pm 19:35 Mostly Cloudy 52 11 52 11 100 100 NNE 7 11 29.84 1011 10 16.0934 0 0
7:55 pm 19:55 Mostly Cloudy 52 11 52 11 100 100 NE 6 9 29.85 1011 10 16.0934 0 0
8:15 pm 20:15 Cloudy 52 11 50 10 94 94 NE 6 9 29.86 1011 10 16.0934 0 0
8:35 pm 20:35 Cloudy 50 10 50 10 100 100 NE 5 7 29.89 1012 10 16.0934 0 0
8:55 pm 20:55 Cloudy with Heavy Rain 50 10 50 10 100 100 NE 6 9 29.91 1013 4 6.43736 0.04 1.016
9:15 pm 21:15 Cloudy with Rain 50 10 50 10 100 100 NE 6 9 29.92 1013 5 8.0467 0.03 0.762
9:35 pm 21:35 Cloudy 48 9 48 9 100 100 ENE 5 7 29.93 1013 7 11.26538 0.04 1.016
9:55 pm 21:55 Mostly Cloudy 46 8 46 8 100 100 ESE 5 7 29.93 1014 10 16.0934 0.04 1.016
10:15 pm 22:15 Cloudy 46 8 46 8 100 100 E 3 6 29.94 1014 10 16.0934 0 0
10:35 pm 22:35 Cloudy 46 8 46 8 100 100 ESE 5 7 29.94 1014 7 11.26538 0 0
10:55 pm 22:55 Cloudy 46 8 46 8 100 100 ESE 6 9 29.95 1014 7 11.26538 0 0
11:15 pm 23:15 Cloudy 45 7 45 7 100 100 SE 5 7 29.95 1014 10 16.0934 0 0
11:35 pm 23:35 Cloudy 45 7 45 7 100 100 ESE 5 7 29.96 1015 7 11.26538 0 0
11:55 pm 23:55 Cloudy 45 7 45 7 100 100 ESE 5 7 29.97 1015 7 11.26538 0 0

Powered by AerisWeather